Flag for U.S.A. Weather past 2 weeks in Oberlin, Ohio, U.S.A.

Now
66 °F

Passing clouds.


Feels Like: 66 °F
Forecast: 64 / 86 °F
Wind: No wind

Location: Lorain County Regional Airport

Current Time: Jul 26, 2014 at 3:10:18 AM

Latest Report: Jul 26, 2014 at 1:53 AM


Visibility: 10 mi

Pressure: 29.99 "Hg

Humidity: 81%

Dew point: 60 °F

Location of OberlinLocation

Historic Weather in Oberlin — Graph

°F

Oberlin temperature yesterday

Maximum temperature yesterday: 79 °F (at 4:53 PM)
Minimum temperature yesterday: 53 °F (at 5:53 AM)
Average temperature yesterday: 67 °F

Past Weeks' High & Low Weather Summary

 TemperatureHumidityPressure
High88 °F (Jul 12, 2:53 PM)90% (Jul 20, 3:53 AM)30.25 "Hg (Jul 20, 3:53 AM)
Low53 °F (Jul 25, 5:53 AM)27% (Jul 17, 5:53 PM)29.72 "Hg (Jul 15, 3:53 AM)
Average71 °F66%30.03 "Hg
* Reported Jul 11 1:53 AM — Jul 26 1:53 AM, Oberlin, Weather by CustomWeather, © 2014

Note: Actual official high and low records may vary slightly from our data, if they occured in-between our weather recording intervals... More about our weather records

Advertising

Oberlin weather history for previous 24 hours

 ConditionsComfort  
Time TempWeatherWind HumidityBarometerVisibility
1:53 AM
Jul 26
66 °FPassing clouds.No wind81%29.99 "Hg10 mi
12:53 AM66 °FLight rain. Overcast.No wind84%30.00 "Hg10 mi
11:53 PM
Jul 25
67 °FLight rain. Overcast.3 mph73%29.98 "Hg10 mi
10:53 PM68 °FLight rain. Passing clouds.No wind73%30.00 "Hg10 mi
9:53 PM70 °FLight rain. Passing clouds.No wind64%30.00 "Hg10 mi
8:53 PM73 °FPartly sunny.6 mph51%29.99 "Hg10 mi
7:53 PM75 °FSunny.3 mph47%29.99 "Hg10 mi
6:53 PM78 °FSunny.7 mph42%29.99 "Hg10 mi
5:53 PM78 °FSunny.7 mph37%29.99 "Hg10 mi
4:53 PM79 °FSunny.8 mph38%30.01 "Hg10 mi
3:53 PM78 °FSunny.6 mph37%30.02 "Hg10 mi
2:53 PM78 °FSunny.3 mph36%30.04 "Hg10 mi
1:53 PM77 °FScattered clouds.6 mph40%30.06 "Hg10 mi
12:53 PM75 °FPartly sunny.5 mph42%30.07 "Hg10 mi
11:53 AM74 °FPassing clouds.No wind41%30.08 "Hg10 mi
10:53 AM73 °FSunny.6 mph48%30.10 "Hg10 mi
9:53 AM70 °FSunny.8 mph57%30.11 "Hg10 mi
8:53 AM65 °FSunny.7 mph68%30.10 "Hg10 mi
7:53 AM60 °FSunny.3 mph78%30.11 "Hg10 mi
6:53 AM54 °FClear.No wind86%30.10 "Hg10 mi
5:53 AM53 °FClear.3 mph86%30.10 "Hg9 mi
4:53 AM54 °FClear.3 mph86%30.08 "Hg10 mi
3:53 AM54 °FClear.No wind86%30.06 "Hg10 mi
Weather by CustomWeather, © 2014

See weather overviewHow to use our weather pages